STARLINK-5135, 54005

Orbit data source: Space-Track

STARLINK-5135, 54005 is a payload satellite owned by SpaceX/Seattle (US) in LEO that was launched on Wed, 05 Oct 2022 UTC via an FALCON 9 launch vehicle from the Air Force Western Test Range (AFWTR). Payload-class satellites include a variety of spacecraft equipped with specific instruments for various scientific and technological missions. These include communications satellites like Starlink; space stations such as the ISS; scientific satellites like the Hubble; Earth observation satellites from companies like Planet Labs, Umbra, and HawkEye 360; GPS; miniature CubeSats for education and research; and military/defense satellites.

Loading next visibility...
Identifier
54005, 2022-125AT
Orbit
LEO
Country
Flag of USUS
Related business
Manufacturer
SpaceX/Seattle
Mission
Operational Commercial Communications
Bus & Motor
STARLINK, Unknown motor
Mass
305 kg wet, ~290 kg dry
Launch date (UTC)
2022-10-05 (4 years ago)
Launch vehicle
FALCON 9
Launch site
Air Force Western Test Range (AFWTR)
Object type
Payload
Rocket body
Debris
Shape & HBR
Box + 1 Pan, 10.1 m
Radar Cross Section
13.562 m², Large (>1 m²)

Expand to show TLE details & history
Last TLE update: 3 days ago

TLE from 3 days ago
0 STARLINK-5135
1 54005U 22125AT  26170.81314436 -.00001821  00000-0 -96330-4 0  9991
2 54005  53.1615 115.2813 0001314  96.5878 263.5263 15.08840735204880
Epoch: 2026-06-19T19:30Z
TLE epoch observation values (Epoch: 2026-06-19T19:30:55.672Z)
Latitude
-0.00004°
Longitude
-85.48743°
Altitude
540.735 km
Speed
7.593 km/s
True Right ascension
07h 41m 07s
True Declination
0° 00' 00"
Sunlit
Object was in daylight at epoch
Visualization orbit readout
Latitude
Unknown
Longitude
Unknown
Altitude
Unknown
Speed
Unknown
Apparent Right ascension
Unknown
Apparent Declination
Unknown
Sunlit
N/A
Visualization observer readout
Local Sidereal Time
21:23:46
Azimuth
Unknown
Elevation
Unknown
Doppler factor
Unknown
Orbital elements
Apogee altitude
540.904 km
Perigee altitude
539.086 km
Semi-major axis
6,918.132 km
Eccentricity
0.00013
Inclination
53.1615°
RAAN
115.2813°
Arg. of periapsis
96.5878°
True anomaly
263.51134°
Mean anomaly
263.5263°
Eccentric anomaly
263.51882°
Mean motion
3.7719 °/min
Orbital period
95.44 mins
BSTAR
-0.00009633
Loading maneuver chart data...
Computing Atmospheric mass density...
Loading historical data...
Loading historical data...
Loading historical data...
Loading historical data...
Loading historical data...
Loading historical data...
Loading historical data...

Documentation

Showing up to 5 results
|